This demonstration page uses our WeatherBlox Daily Observations layout. Learn more.

Left ArrowRight Arrow

Hourly Observations for January 15, 2017

Temp ( °F °C ) Dew Point ( °F °C ) Humidity (%) Winds ( mph kmh ) Pressure ( in mb ) Visibility ( mi km ) Precip ( " mm )
12:15 am 00:15 Cloudy 30 -1 28 -2 93 93 N 6 9 30.45 1031 4 6.43736 N/A
12:35 am 00:35 Cloudy 30 -1 28 -2 93 93 N 6 9 30.45 1031 4 6.43736 N/A
12:55 am 00:55 Cloudy 30 -1 28 -2 93 93 N 7 11 30.45 1031 4 6.43736 N/A
1:15 am 01:15 Cloudy 30 -1 28 -2 93 93 NNW 5 7 30.45 1031 5 8.0467 N/A
1:35 am 01:35 Cloudy 30 -1 28 -2 93 93 NNE 5 7 30.45 1031 5 8.0467 N/A
1:55 am 01:55 Cloudy 30 -1 28 -2 93 93 N 6 9 30.45 1031 5 8.0467 N/A
2:15 am 02:15 Cloudy 30 -1 27 -3 86 86 NNE 6 9 30.45 1031 5 8.0467 N/A
2:35 am 02:35 Cloudy 30 -1 27 -3 86 86 N 5 7 30.48 1032 5 8.0467 N/A
2:55 am 02:55 Cloudy 30 -1 27 -3 86 86 NE 6 9 30.48 1032 5 8.0467 N/A
3:15 am 03:15 Cloudy 30 -1 27 -3 86 86 NNE 7 11 30.48 1032 5 8.0467 N/A
3:35 am 03:35 Cloudy 30 -1 27 -3 86 86 NNE 5 7 30.45 1031 5 8.0467 N/A
3:55 am 03:55 Cloudy 30 -1 27 -3 86 86 NE 5 7 30.45 1031 5 8.0467 N/A
4:15 am 04:15 Cloudy 30 -1 28 -2 93 93 N 5 7 30.45 1031 4 6.43736 N/A
4:35 am 04:35 Cloudy 28 -2 27 -3 93 93 Calm 30.48 1032 4 6.43736 N/A
4:55 am 04:55 Cloudy 28 -2 27 -3 93 93 NNE 5 7 30.48 1032 4 6.43736 N/A
5:15 am 05:15 Partly Cloudy 28 -2 27 -3 93 93 NNE 3 6 30.48 1032 3 4.82802 N/A
5:35 am 05:35 Clear 28 -2 27 -3 93 93 NE 3 6 30.48 1032 4 6.43736 N/A
5:55 am 05:55 Partly Cloudy 28 -2 27 -3 93 93 NE 3 6 30.48 1032 5 8.0467 N/A
6:15 am 06:15 Partly Cloudy 28 -2 27 -3 93 93 NE 5 7 30.48 1032 5 8.0467 N/A
6:35 am 06:35 Partly Cloudy 28 -2 27 -3 93 93 NE 3 6 30.48 1032 4 6.43736 N/A
6:55 am 06:55 Mostly Cloudy 28 -2 27 -3 93 93 ENE 5 7 30.48 1032 4 6.43736 N/A
7:15 am 07:15 Partly Cloudy 28 -2 27 -3 93 93 NE 3 6 30.48 1032 5 8.0467 N/A
7:35 am 07:35 Clear 27 -3 27 -3 100 100 NE 3 6 30.48 1032 4 6.43736 N/A
7:55 am 07:55 Clear 27 -3 27 -3 100 100 NE 5 7 30.48 1032 4 6.43736 N/A
8:15 am 08:15 Sunny 27 -3 27 -3 100 100 NNE 6 9 30.48 1032 4 6.43736 N/A
8:35 am 08:35 Sunny 28 -2 27 -3 93 93 NNE 7 11 30.48 1032 3 4.82802 N/A
8:56 am 08:56 Partly Cloudy 28 -2 27 -3 93 93 ENE 3 6 30.48 1032 3 4.82802 N/A
9:15 am 09:15 Partly Cloudy 28 -2 27 -3 93 93 E 5 7 30.48 1032 3 4.82802 N/A
9:35 am 09:35 Partly Cloudy 28 -2 27 -3 93 93 E 3 6 30.48 1032 4 6.43736 N/A
9:55 am 09:55 Partly Cloudy 30 -1 27 -3 86 86 E 5 7 30.45 1031 4 6.43736 N/A
10:15 am 10:15 Partly Cloudy 30 -1 27 -3 86 86 ESE 3 6 30.45 1031 4 6.43736 N/A
10:35 am 10:35 Mostly Cloudy 30 -1 27 -3 86 86 E 5 7 30.45 1031 4 6.43736 N/A
10:55 am 10:55 Cloudy 30 -1 27 -3 86 86 Calm 30.45 1031 4 6.43736 N/A
11:15 am 11:15 Cloudy 30 -1 28 -2 93 93 ESE 5 7 30.45 1031 4 6.43736 N/A
11:35 am 11:35 Cloudy 30 -1 27 -3 86 86 ENE 3 6 30.45 1031 5 8.0467 N/A
11:55 am 11:55 Cloudy 30 -1 28 -2 93 93 ENE 5 7 30.42 1030 5 8.0467 N/A
12:16 pm 12:16 Cloudy 32 0 28 -2 87 87 ENE 5 7 30.42 1030 5 8.0467 N/A
12:35 pm 12:35 Cloudy 32 0 28 -2 87 87 E 5 7 30.42 1030 5 8.0467 N/A
12:55 pm 12:55 Cloudy 32 0 28 -2 87 87 ENE 3 6 30.39 1029 5 8.0467 N/A
1:15 pm 13:15 Mostly Cloudy 32 0 28 -2 87 87 E 6 9 30.39 1029 5 8.0467 N/A
1:35 pm 13:35 Partly Cloudy 32 0 30 -1 93 93 ESE 5 7 30.39 1029 5 8.0467 N/A
1:56 pm 13:56 Partly Cloudy 32 0 28 -2 87 87 SE 5 7 30.36 1028 5 8.0467 N/A
2:15 pm 14:15 Partly Cloudy 32 0 28 -2 87 87 E 5 7 30.36 1028 5 8.0467 N/A
2:35 pm 14:35 Mostly Cloudy 32 0 30 -1 93 93 E 5 7 30.36 1028 5 8.0467 N/A
2:55 pm 14:55 Cloudy 32 0 30 -1 93 93 ENE 5 7 30.36 1028 5 8.0467 N/A
3:15 pm 15:15 Cloudy 34 1 30 -1 87 87 E 6 9 30.36 1028 5 8.0467 N/A
3:35 pm 15:35 Cloudy 34 1 30 -1 87 87 E 3 6 30.36 1028 5 8.0467 N/A
3:55 pm 15:55 Cloudy 34 1 30 -1 87 87 ENE 5 7 30.36 1028 5 8.0467 N/A
4:15 pm 16:15 Cloudy 32 0 30 -1 93 93 ENE 5 7 30.36 1028 5 8.0467 N/A
4:35 pm 16:35 Cloudy 32 0 30 -1 93 93 ENE 5 7 30.36 1028 5 8.0467 N/A
4:56 pm 16:56 Mostly Cloudy 32 0 30 -1 93 93 ENE 5 7 30.36 1028 5 8.0467 N/A
5:15 pm 17:15 Partly Cloudy 32 0 30 -1 93 93 E 5 7 30.36 1028 5 8.0467 N/A
5:35 pm 17:35 Partly Cloudy 32 0 30 -1 93 93 ENE 7 11 30.36 1028 5 8.0467 N/A
5:55 pm 17:55 Mostly Cloudy 32 0 30 -1 93 93 ENE 5 7 30.36 1028 7 11.26538 N/A
6:16 pm 18:16 Cloudy 32 0 30 -1 93 93 ENE 5 7 30.36 1028 7 11.26538 N/A
6:35 pm 18:35 Cloudy 32 0 30 -1 93 93 ENE 5 7 30.36 1028 7 11.26538 N/A
6:56 pm 18:56 Cloudy 32 0 30 -1 93 93 ESE 3 6 30.36 1028 7 11.26538 N/A
7:15 pm 19:15 Cloudy 32 0 30 -1 93 93 E 3 6 30.36 1028 7 11.26538 N/A
7:35 pm 19:35 Cloudy 32 0 30 -1 93 93 ESE 3 6 30.36 1028 7 11.26538 N/A
7:55 pm 19:55 Cloudy 32 0 30 -1 93 93 Calm 30.36 1028 7 11.26538 N/A
8:15 pm 20:15 Cloudy 32 0 30 -1 93 93 E 5 7 30.36 1028 7 11.26538 N/A
8:35 pm 20:35 Cloudy 32 0 30 -1 93 93 ESE 3 6 30.36 1028 5 8.0467 N/A
8:55 pm 20:55 Cloudy 32 0 30 -1 93 93 ESE 5 7 30.36 1028 5 8.0467 N/A
9:15 pm 21:15 Cloudy 32 0 30 -1 93 93 ESE 5 7 30.36 1028 5 8.0467 N/A
9:35 pm 21:35 Partly Cloudy 32 0 30 -1 93 93 ESE 3 6 30.36 1028 5 8.0467 N/A
9:55 pm 21:55 Partly Cloudy 32 0 30 -1 93 93 E 5 7 30.33 1027 5 8.0467 N/A
10:15 pm 22:15 Mostly Cloudy 32 0 30 -1 93 93 ENE 5 7 30.33 1027 4 6.43736 N/A
10:35 pm 22:35 Cloudy 32 0 30 -1 93 93 E 3 6 30.33 1027 5 8.0467 N/A
10:55 pm 22:55 Mostly Cloudy 32 0 32 0 100 100 E 5 7 30.33 1027 4 6.43736 N/A
11:16 pm 23:16 Mostly Cloudy 32 0 32 0 100 100 E 5 7 30.33 1027 4 6.43736 N/A
11:35 pm 23:35 Cloudy 32 0 32 0 100 100 E 5 7 30.33 1027 4 6.43736 N/A
11:55 pm 23:55 Cloudy 32 0 32 0 100 100 E 5 7 30.33 1027 4 6.43736 N/A

Powered by AerisWeather